User: anonymous   Login
Location: *
(51.1248°S, 108.4023°W)
Time: 21:02:36
(UTC+00:00)
Language:

deb r/b Ablestar - Orbit

View from above orbital plane
View from above orbital plane
View from above satellite
View from above satellite

Ground track
Ground track

The orbit data is extracted from the following two-line orbital elements,

1 00172U 61015AY  22022.57492171  .00000166  00000-0  30822-3 0  9998
2 00172  67.0664 241.3015 0130313 126.2770 235.0415 13.57627274986897
Epoch (UTC): 22 January 2022 13:47:53
Eccentricity: 0.0130313
inclination: 67.0664°
perigee height: 947 km
apogee height: 1141 km
right ascension of ascending node: 241.3015°
argument of perigee: 126.2770°
revolutions per day: 13.57627274
mean anomaly at epoch: 235.0415°
orbit number at epoch: 98689

The dashed part of the orbit path shows where the satellite is in the earth's shadow,  

DLR